GTALE EGBM-EGBM

Flight info

Callsign GTALE
Flight time 0h 19m
Altitude 5500
Route EGBM DCT EGBM
Aircraft C152/L-SFG/C

Departure

Time 2026-05-05 15:10
Airport Tatenhill Airfield (EGBM)

Arrival

Time 2026-05-05 15:30
Airport Tatenhill Airfield (EGBM)
Time Latitude Longitude Altitude Speed Heading
2026-05-05 15:10 52.80661 -1.69410 1532 ft 78 kts 53°
2026-05-05 15:11 52.80895 -1.68611 1552 ft 87 kts 82°
2026-05-05 15:11 52.80512 -1.67839 1525 ft 99 kts 165°
2026-05-05 15:12 52.79976 -1.68243 1532 ft 85 kts 256°
2026-05-05 15:12 52.80112 -1.68934 1548 ft 76 kts 331°
2026-05-05 15:12 52.80454 -1.68922 1526 ft 82 kts 28°
2026-05-05 15:13 52.80562 -1.68028 1565 ft 96 kts 117°
2026-05-05 15:13 52.79957 -1.67746 1526 ft 97 kts 212°
2026-05-05 15:13 52.79784 -1.68605 1551 ft 80 kts 301°
2026-05-05 15:13 52.80272 -1.68882 1570 ft 75 kts 12°
2026-05-05 15:14 52.80769 -1.68640 1657 ft 74 kts 12°
2026-05-05 15:14 52.81266 -1.68415 1684 ft 73 kts
2026-05-05 15:14 52.81697 -1.68719 1746 ft 74 kts 301°
2026-05-05 15:14 52.81751 -1.69621 1776 ft 83 kts 276°
2026-05-05 15:15 52.81748 -1.70550 1877 ft 79 kts 275°
2026-05-05 15:15 52.81742 -1.71478 1985 ft 82 kts 273°
2026-05-05 15:15 52.81712 -1.72432 2113 ft 83 kts 271°
2026-05-05 15:15 52.81651 -1.73376 2216 ft 84 kts 268°
2026-05-05 15:16 52.81693 -1.74300 2303 ft 80 kts 295°
2026-05-05 15:16 52.81880 -1.75144 2411 ft 78 kts 300°
2026-05-05 15:16 52.82104 -1.76023 2393 ft 87 kts 299°
2026-05-05 15:16 52.82256 -1.76978 2351 ft 88 kts 268°
2026-05-05 15:17 52.81881 -1.77775 2197 ft 95 kts 210°
2026-05-05 15:17 52.81243 -1.77840 2035 ft 92 kts 169°
2026-05-05 15:17 52.80619 -1.77603 1859 ft 93 kts 165°
2026-05-05 15:17 52.79994 -1.77332 1700 ft 93 kts 159°
2026-05-05 15:18 52.79662 -1.76601 1535 ft 78 kts 79°
2026-05-05 15:18 52.79759 -1.75737 1371 ft 77 kts 70°
2026-05-05 15:18 52.79924 -1.74872 1255 ft 80 kts 64°
2026-05-05 15:18 52.80142 -1.74003 1220 ft 84 kts 59°
2026-05-05 15:19 52.80355 -1.73070 1192 ft 88 kts 67°
2026-05-05 15:19 52.80773 -1.72533 1177 ft 81 kts 351°
2026-05-05 15:19 52.81259 -1.72869 1200 ft 66 kts 335°
2026-05-05 15:19 52.81647 -1.73226 1009 ft 64 kts 332°
2026-05-05 15:20 52.81906 -1.73766 857 ft 65 kts 276°
2026-05-05 15:20 52.81752 -1.74497 651 ft 67 kts 264°
2026-05-05 15:20 52.81627 -1.75238 525 ft 69 kts 262°
2026-05-05 15:20 52.81481 -1.76036 547 ft 78 kts 261°
2026-05-05 15:21 52.81309 -1.76895 776 ft 81 kts 261°
2026-05-05 15:21 52.80990 -1.77666 1055 ft 88 kts 204°
2026-05-05 15:21 52.80380 -1.77560 1256 ft 92 kts 164°
2026-05-05 15:21 52.79749 -1.77240 1297 ft 98 kts 159°
2026-05-05 15:22 52.79279 -1.76583 1377 ft 88 kts 85°
2026-05-05 15:22 52.79434 -1.75590 1352 ft 93 kts 65°
2026-05-05 15:22 52.79689 -1.74567 1278 ft 96 kts 62°
2026-05-05 15:22 52.79960 -1.73619 1192 ft 87 kts 56°
2026-05-05 15:23 52.80244 -1.72727 1172 ft 88 kts 57°
2026-05-05 15:23 52.80652 -1.72097 1247 ft 82 kts
2026-05-05 15:23 52.81188 -1.72341 1243 ft 74 kts 339°
2026-05-05 15:23 52.81653 -1.72698 1108 ft 77 kts 335°
2026-05-05 15:24 52.82016 -1.73294 968 ft 78 kts 289°
2026-05-05 15:24 52.81822 -1.74184 761 ft 89 kts 252°
2026-05-05 15:24 52.81645 -1.75135 531 ft 85 kts 259°
2026-05-05 15:24 52.81470 -1.76114 543 ft 93 kts 259°
2026-05-05 15:25 52.81279 -1.77068 848 ft 84 kts 259°
2026-05-05 15:25 52.80875 -1.77693 1168 ft 88 kts 186°
2026-05-05 15:25 52.80233 -1.77526 1222 ft 98 kts 166°
2026-05-05 15:25 52.79576 -1.77211 1296 ft 98 kts 158°
2026-05-05 15:26 52.78935 -1.76796 1387 ft 96 kts 143°
2026-05-05 15:26 52.78803 -1.75903 1462 ft 84 kts 69°
2026-05-05 15:26 52.78985 -1.74924 1405 ft 93 kts 66°
2026-05-05 15:26 52.79206 -1.73907 1375 ft 94 kts 65°
2026-05-05 15:27 52.79443 -1.72903 1345 ft 94 kts 61°
2026-05-05 15:27 52.79695 -1.71937 1366 ft 90 kts 62°
2026-05-05 15:27 52.80018 -1.71132 1405 ft 78 kts 16°
2026-05-05 15:27 52.80530 -1.71394 1416 ft 81 kts 334°
2026-05-05 15:28 52.80964 -1.71822 1396 ft 66 kts 330°
2026-05-05 15:28 52.81341 -1.72270 1260 ft 68 kts 328°
2026-05-05 15:28 52.81715 -1.72739 1141 ft 66 kts 326°
2026-05-05 15:28 52.81991 -1.73349 1020 ft 72 kts 283°
2026-05-05 15:29 52.81819 -1.74172 857 ft 82 kts 257°
2026-05-05 15:29 52.81656 -1.75076 609 ft 81 kts 259°
2026-05-05 15:29 52.81502 -1.75934 452 ft 72 kts 261°
2026-05-05 15:29 52.81379 -1.76619 433 ft 52 kts 247°
2026-05-05 15:30 52.81326 -1.76928 422 ft 12 kts 288°
2026-05-05 15:30 52.81389 -1.76897 423 ft 10 kts 33°
2026-05-05 15:30 52.81396 -1.76890 423 ft 0 kts 34°
2026-05-05 15:31 52.81413 -1.76872 416 ft 11 kts 31°
2026-05-05 15:31 52.81530 -1.76767 423 ft 24 kts 28°
2026-05-05 15:31 52.81673 -1.76637 429 ft 20 kts 27°
2026-05-05 15:32 52.81752 -1.76531 427 ft 12 kts 76°
2026-05-05 15:32 52.81728 -1.76417 425 ft 12 kts 116°
2026-05-05 15:32 52.81706 -1.76259 430 ft 16 kts 98°
2026-05-05 15:32 52.81692 -1.76073 433 ft 18 kts 95°
2026-05-05 15:33 52.81674 -1.75917 440 ft 14 kts 93°
2026-05-05 15:33 52.81658 -1.75773 439 ft 7 kts 124°
2026-05-05 15:33 52.81634 -1.75759 443 ft 4 kts 185°
2026-05-05 15:33 52.81611 -1.75721 444 ft 6 kts 112°
2026-05-05 15:34 52.81615 -1.75687 444 ft 0 kts 21°
2026-05-05 15:42 52.81615 -1.75688 446 ft 0 kts 21°
2026-05-05 15:42 52.81615 -1.75675 440 ft 0 kts 206°
2026-05-05 15:43 52.81614 -1.75676 440 ft 0 kts 205°